Regional Weather Roundup
Issued by NWS

Home | Current Version | Previous Version | Graphics & Text | Print | Product List | Glossary On
Versions: 1 2 3 4 5 6 7 8 9 10 11 12 13 14 15 16 17 18 19 20 21 22 23 24 25 26 27 28 29 30 31 32 33 34 35 36 37 38 39 40 41 42 43 44 45 46 47 48 49
000
ASUS45 KSLC 032210
RWRUT

UTAH REGIONAL WEATHER ROUNDUP
NATIONAL WEATHER SERVICE SALT LAKE CITY UT
400 PM MDT SUN MAY 03 2015

UTZ001>011-023>025-032300-

NORTHERN UTAH

CITY           SKY/WX    TMP DP  RH WIND       PRES   REMARKS
BRIGHAM CITY   PTSUNNY   77  31  18 S15       29.85F
HILL AFB       PTSUNNY   73  36  26 S12G18    29.89F
LOGAN          SUNNY     74  41  30 N12       29.87F
OGDEN          MOSUNNY   76  34  21 S12       29.86F
PROVO AIRPORT  MOSUNNY   77  37  24 NW12      29.86F
SALT LAKE CITY PTSUNNY   75  31  19 E13       29.85F
VERNAL         CLOUDY    73  30  20 W14G28    29.93S
WENDOVER       CLOUDY    75  32  20 SE6       29.85F
HEBER CITY     PTSUNNY   75  30  19 W16       29.91F
WEST JORDAN    SUNNY     72  46  40 NE9       29.88F

$$

UTZ012>022-026-027-032300-

SOUTHERN/CENTRAL UTAH

CITY           SKY/WX    TMP DP  RH WIND       PRES   REMARKS
BLANDING       PTSUNNY   66  33  28 CALM      30.09F
BRYCE CANYON   PTSUNNY   59  30  33 VRB6      30.09F
CEDAR CITY     PTSUNNY   74  33  22 SW15G26   29.95F
DELTA          MOSUNNY   79  24  12 SW8       29.86F
HANKSVILLE     CLOUDY    75  32  20 NE5       29.93F
MILFORD        PTSUNNY   77  30  17 SW18G25   29.90F
MOAB/CYNLANDS  PTSUNNY   78  29  16 S12       29.85F
PRICE          PTSUNNY   69  32  25 N9        29.98F
ST GEORGE      MOCLDY    81  37  21 E7        29.85F
KANAB          PTSUNNY   66  39  37 W21G31    29.99R

$$

REGIONAL REPORTS     COLORADO/ARIZONA

CITY           SKY/WX    TMP DP  RH WIND       PRES   REMARKS
CRAIG, CO      CLOUDY    66  35  31 S21G30    29.98F
GRAND JUNCTION PTSUNNY   72  32  23 S6        29.90F
RIFLE          CLOUDY    66  36  32 N16G26    29.99S
MONTROSE       CLOUDY    70  36  28 SE20G26   30.00F
CORTEZ         CLOUDY    63  38  39 S16       30.04R
PAGE, AZ       PTSUNNY   74  36  25 SW13      29.93F
GRAND CANYON   LGT RAIN  51  43  74 E8        30.11S
KINGMAN        SUNNY     84  34  16 SW21G31   29.86F
FLAGSTAFF      PTSUNNY   62  35  36 E12G21    30.07F

$$

REGIONAL REPORTS    NEVADA/IDAHO/WYOMING

CITY           SKY/WX    TMP DP  RH WIND       PRES   REMARKS
LAS VEGAS, NV  MOSUNNY   89  30  12 S8        29.72F
ELY            MOSUNNY   74  22  14 SW16G31   29.93F
ELKO           CLOUDY    70  32  24 S18G25    29.89R
POCATELLO, ID  PTSUNNY   73  34  23 NW9       29.87F THUNDER
BURLEY         PTSUNNY   72  41  32 S10       29.86S
EVANSTON, WY   PTSUNNY   62  34  35 W21G31    30.00F
ROCK SPRINGS   LGT RAIN  48  40  73 W22G32    30.08R
KEMMERER       LGT RAIN  57  34  41 N14       30.02F

$$



USA.gov is the U.S. government's official web portal to all federal, state and local government web resources and services.